Terminal Aerodrome Forecast
Issued by NWS Charleston, SC

Home | Current Version | Previous Version | Text Only | Print | Product List | Glossary On
Versions: 1 2 3 4 5 6 7 8 9 10 11 12 13 14
292
FTUS42 KCHS 281120
TAFCHS
TAF
KCHS 281120Z 2812/2912 24005KT P6SM SCT200
     FM281600 27010KT P6SM SCT050 BKN200
     FM282000 23012G18KT P6SM SCT045 BKN200
     FM290000 22006KT P6SM BKN200=

USA.gov is the U.S. government's official web portal to all federal, state and local government web resources and services.